Regional Weather Roundup
Issued by NWS

Home | Current Version | Previous Version | Text Only | Print | Product List | Glossary Off
Versions: 1 2 3 4 5 6 7 8 9 10 11 12 13 14 15 16 17 18 19 20 21 22 23 24 25 26 27 28 29 30 31 32 33 34 35 36 37 38 39 40 41 42 43 44 45 46 47 48 49 50

880
ASUS43 KOAX 220610
RWRNE

WEATHER ROUNDUP FOR NEBRASKA
NATIONAL WEATHER SERVICE OMAHA NE
100 AM CDT FRI MAY 22 2015

NOTES: SATELLITE DATA IS BEING USED TO AUGMENT CLOUD COVER ABOVE
       12000 FEET.
       "FAIR" INDICATES FEW OR NO CLOUDS BELOW 12,000 FEET WITH NO
       SIGNIFICANT WEATHER AND/OR OBSTRUCTIONS TO VISIBILITY.

  * THESE STATIONS DO NOT REPORT WEATHER SUCH AS RAIN...SNOW OR FOG.

NEZ001>004-019>022-054>056-220700-
NEBRASKA PANHANDLE

CITY           SKY/WX    TMP DP  RH WIND       PRES   REMARKS
SCOTTSBLUFF    CLOUDY    51  45  79 E13       30.11F
6HR MIN TEMP:  51; 6HR MAX TEMP:  55;

ALLIANCE       CLOUDY    51  44  77 SE10      30.14F
6HR MIN TEMP:  51; 6HR MAX TEMP:  55;

CHADRON        CLOUDY    54  44  69 SE14      30.12F
6HR MIN TEMP:  53; 6HR MAX TEMP:  59;

KIMBALL          N/A    N/A N/A N/A MISG        N/A
SIDNEY         CLOUDY    49  44  83 SE12      30.14F
6HR MIN TEMP:  49; 6HR MAX TEMP:  55;

$$

NEZ057>060-069>072-079>082-220700-
SOUTHWEST NEBRASKA

CITY           SKY/WX    TMP DP  RH WIND       PRES   REMARKS
NORTH PLATTE   CLOUDY    53  42  66 SE7       30.21S
6HR MIN TEMP:  53; 6HR MAX TEMP:  62;

IMPERIAL       CLOUDY    51  46  83 SE7       30.18S
6HR MIN TEMP:  51; 6HR MAX TEMP:  57;

LEXINGTON      MOCLDY    47  41  79 S6        30.21F
MCCOOK         MOCLDY    49  43  80 S7        30.20S
6HR MIN TEMP:  49; 6HR MAX TEMP:  62;

OGALLALA       CLOUDY    52  45  77 E6        30.18S
$$

NEZ005>010-023>029-035>040-094-220700-
NORTH CENTRAL NEBRASKA

CITY           SKY/WX    TMP DP  RH WIND       PRES   REMARKS
VALENTINE      CLEAR     50  37  61 S9        30.19R
6HR MIN TEMP:  49; 6HR MAX TEMP:  66;

AINSWORTH      CLEAR     44  38  77 S9        30.20S
BROKEN BOW     PTCLDY    44  40  85 CALM      30.21S
6HR MIN TEMP:  43; 6HR MAX TEMP:  64;

O`NEILL        CLEAR     48  40  72 SW6       30.21S
ORD            PTCLDY    42  37  82 CALM      30.21R
6HR MIN TEMP:  42; 6HR MAX TEMP:  65;

THEDFORD       PTCLDY    51  41  68 S12       30.21S
$$

NEZ041-046>049-061>064-073>077-083>087-220700-
SOUTH CENTRAL NEBRASKA

CITY           SKY/WX    TMP DP  RH WIND       PRES   REMARKS
GRAND ISLAND   PTCLDY    51  40  65 S5        30.23S
6HR MIN TEMP:  48; 6HR MAX TEMP:  65;

AURORA         PTCLDY    53  39  58 SW5       30.23S
HASTINGS       MOCLDY    52  40  63 S3        30.22F
6HR MIN TEMP:  52; 6HR MAX TEMP:  64;

HEBRON         MOCLDY    49  43  81 CALM      30.23F
HOLDREGE       MOCLDY    49  39  70 S3        30.22S
KEARNEY *      MOCLDY    50  39  66 S3        30.22F
YORK           MOCLDY    50  45  81 S7        30.23S
$$

NEZ011>018-030>034-042>045-220700-
NORTHEAST NEBRASKA

CITY           SKY/WX    TMP DP  RH WIND       PRES   REMARKS
NORFOLK        CLEAR     51  38  60 W5        30.20R
6HR MIN TEMP:  51; 6HR MAX TEMP:  70;

ALBION         CLEAR     47  37  66 CALM      30.21S
BLAIR          CLEAR     56  41  57 W7        30.19S
COLUMBUS *     PTCLDY    52  37  58 W6        30.24R
FREMONT        PTCLDY    55  41  58 W3        30.20R
TEKAMAH        FAIR      55  40  56 SW9       30.18R
6HR MIN TEMP:  55; 6HR MAX TEMP:  74;

WAYNE          CLEAR     46  39  77 SW3       30.19R
$$

NEZ050>053-065>068-078-088>093-220700-
SOUTHEAST NEBRASKA

CITY           SKY/WX    TMP DP  RH WIND       PRES   REMARKS
LINCOLN        PTCLDY    55  41  59 SW6       30.23R
6HR MIN TEMP:  54; 6HR MAX TEMP:  70;

OMAHA EPPLEY   PTCLDY    60  40  47 W5        30.19R
6HR MIN TEMP:  60; 6HR MAX TEMP:  72;

BEATRICE       PTCLDY    52  43  73 SW5       30.23S
FALLS CITY     MOCLDY    54  44  69 SW9       30.21R
6HR MIN TEMP:  54; 6HR MAX TEMP:  69;

NEBRASKA CITY  CLEAR     52  40  61 W10       30.20S
PLATTSMOUTH    PTCLDY    56  39  54 W6        30.20R
$$

NEZ044-045-051>053-067-220700-
OMAHA AREA

CITY           SKY/WX    TMP DP  RH WIND       PRES   REMARKS
OMAHA EPPLEY   PTCLDY    60  40  47 W5        30.19R
6HR MIN TEMP:  60; 6HR MAX TEMP:  72;

BLAIR          CLEAR     56  41  57 W7        30.19S
FREMONT        PTCLDY    55  41  58 W3        30.20R
MILLARD        PTCLDY    57  42  58 CALM      30.19S
OFFUTT AFB     PTCLDY    54  42  62 W5        30.18S
PLATTSMOUTH    PTCLDY    56  39  54 W6        30.20R
WAHOO          FAIR      55  42  63 SW7       30.20S
$$



USA.gov is the U.S. government's official web portal to all federal, state and local government web resources and services.